Time,TemperatureF,DewpointF,PressureIn,WindDirection,WindDirectionDegrees,WindSpeedMPH,WindSpeedGustMPH,Humidity,HourlyPrecipIn,Conditions,Clouds,dailyrainin,SolarRadiationWatts/m^2,SoftwareType,DateUTC
2013-12-03 00:03:00,36.4,34.3,29.66,SE,144,1.7,3.5,92,0.00,CLR,,0.00,0.0,WeatherDisplay:10.37,2013-12-03 06:03:00,
2013-12-03 00:08:00,36.4,34.3,29.66,SE,144,1.2,2.3,92,0.00,CLR,,0.00,0.0,WeatherDisplay:10.37,2013-12-03 06:08:00,
2013-12-03 00:13:00,36.5,34.4,29.66,SE,144,1.0,2.3,92,0.00,CLR,,0.00,0.0,WeatherDisplay:10.37,2013-12-03 06:13:00,
2013-12-03 00:18:00,36.6,34.5,29.66,SE,144,1.4,2.3,92,0.00,CLR,,0.00,0.0,WeatherDisplay:10.37,2013-12-03 06:18:00,
2013-12-03 00:23:00,36.8,34.7,29.66,SE,144,0.3,3.5,92,0.00,CLR,,0.00,0.0,WeatherDisplay:10.37,2013-12-03 06:23:00,
2013-12-03 00:28:00,36.9,34.8,29.66,SE,144,0.0,1.2,92,0.00,CLR,,0.00,0.0,WeatherDisplay:10.37,2013-12-03 06:28:00,
2013-12-03 00:33:00,37.1,35.0,29.66,SE,144,1.6,3.5,92,0.00,CLR,,0.00,0.0,WeatherDisplay:10.37,2013-12-03 06:33:00,
2013-12-03 00:38:00,37.3,35.2,29.65,SE,144,1.4,3.5,92,0.00,CLR,,0.00,0.0,WeatherDisplay:10.37,2013-12-03 06:38:00,
2013-12-03 00:43:00,37.4,35.3,29.65,SE,144,1.8,3.5,92,0.00,CLR,,0.00,0.0,WeatherDisplay:10.37,2013-12-03 06:43:00,
2013-12-03 00:48:00,37.4,35.3,29.65,SE,144,0.3,1.2,92,0.00,CLR,,0.00,0.0,WeatherDisplay:10.37,2013-12-03 06:48:00,
2013-12-03 00:53:00,37.3,35.2,29.65,SE,144,1.6,3.5,92,0.00,CLR,,0.00,0.0,WeatherDisplay:10.37,2013-12-03 06:53:00,
2013-12-03 00:58:00,37.1,35.0,29.65,SE,144,1.4,3.5,92,0.00,CLR,,0.00,0.0,WeatherDisplay:10.37,2013-12-03 06:58:00,
2013-12-03 01:03:00,36.9,34.8,29.65,SE,144,2.3,3.5,92,0.00,CLR,,0.00,0.0,WeatherDisplay:10.37,2013-12-03 07:03:00,
2013-12-03 01:08:00,36.8,34.7,29.65,SE,144,2.1,3.5,92,0.00,CLR,,0.00,0.0,WeatherDisplay:10.37,2013-12-03 07:08:00,
2013-12-03 01:13:00,36.8,34.7,29.65,SE,144,1.4,2.3,92,0.00,CLR,,0.00,0.0,WeatherDisplay:10.37,2013-12-03 07:13:00,
2013-12-03 01:18:00,36.7,34.6,29.64,SE,144,1.2,2.3,92,0.00,CLR,,0.00,0.0,WeatherDisplay:10.37,2013-12-03 07:18:00,
2013-12-03 01:23:00,36.4,34.3,29.64,SE,144,2.7,4.0,92,0.00,CLR,,0.00,0.0,WeatherDisplay:10.37,2013-12-03 07:23:00,
2013-12-03 01:28:00,36.2,34.1,29.64,SE,144,2.0,3.5,92,0.00,CLR,,0.00,0.0,WeatherDisplay:10.37,2013-12-03 07:28:00,
2013-12-03 01:33:00,36.0,33.9,29.64,SE,144,2.6,4.6,92,0.00,CLR,,0.00,0.0,WeatherDisplay:10.37,2013-12-03 07:33:00,
2013-12-03 01:38:00,35.9,33.8,29.64,SE,144,2.3,4.0,92,0.00,CLR,,0.00,0.0,WeatherDisplay:10.37,2013-12-03 07:38:00,
2013-12-03 01:43:00,35.9,33.8,29.64,SE,144,2.8,4.0,92,0.00,CLR,,0.00,0.0,WeatherDisplay:10.37,2013-12-03 07:43:00,
2013-12-03 01:48:00,35.9,33.8,29.64,SE,144,1.3,3.0,92,0.00,CLR,,0.00,0.0,WeatherDisplay:10.37,2013-12-03 07:48:00,
2013-12-03 01:53:00,35.8,33.7,29.63,SE,144,2.9,4.0,92,0.00,CLR,,0.00,0.0,WeatherDisplay:10.37,2013-12-03 07:53:00,
2013-12-03 01:58:00,35.9,33.8,29.63,SE,144,3.9,5.0,92,0.00,CLR,,0.00,0.0,WeatherDisplay:10.37,2013-12-03 07:58:00,
2013-12-03 02:03:00,36.1,34.3,29.63,SE,142,1.7,3.5,93,0.00,CLR,,0.00,0.0,WeatherDisplay:10.37,2013-12-03 08:03:00,
2013-12-03 02:08:00,36.1,34.3,29.63,SE,127,2.0,4.6,93,0.00,CLR,,0.00,0.0,WeatherDisplay:10.37,2013-12-03 08:08:00,
2013-12-03 02:13:00,36.2,34.4,29.62,SE,146,2.6,4.6,93,0.00,CLR,,0.00,0.0,WeatherDisplay:10.37,2013-12-03 08:13:00,
2013-12-03 02:18:00,36.3,34.5,29.62,SE,146,2.0,4.0,93,0.00,CLR,,0.00,0.0,WeatherDisplay:10.37,2013-12-03 08:18:00,
2013-12-03 02:23:00,36.4,34.6,29.62,SSE,147,2.2,4.0,93,0.00,CLR,,0.00,0.0,WeatherDisplay:10.37,2013-12-03 08:23:00,
2013-12-03 02:28:00,36.6,34.8,29.63,SSE,153,2.3,4.6,93,0.00,CLR,,0.00,0.0,WeatherDisplay:10.37,2013-12-03 08:28:00,
2013-12-03 02:33:00,36.8,35.0,29.63,SSE,149,3.4,4.0,93,0.00,CLR,,0.00,0.0,WeatherDisplay:10.37,2013-12-03 08:33:00,
2013-12-03 02:38:00,36.9,35.1,29.63,SSE,149,1.0,3.5,93,0.00,CLR,,0.00,0.0,WeatherDisplay:10.37,2013-12-03 08:38:00,
2013-12-03 02:43:00,36.9,35.1,29.63,SSE,149,1.1,2.3,93,0.00,CLR,,0.00,0.0,WeatherDisplay:10.37,2013-12-03 08:43:00,
2013-12-03 02:48:00,36.9,35.1,29.62,SSE,149,1.8,3.5,93,0.00,CLR,,0.00,0.0,WeatherDisplay:10.37,2013-12-03 08:48:00,
2013-12-03 02:53:00,36.8,35.0,29.62,SE,145,2.3,3.5,93,0.00,CLR,,0.00,0.0,WeatherDisplay:10.37,2013-12-03 08:53:00,
2013-12-03 02:58:00,36.6,34.8,29.62,SE,146,0.4,3.5,93,0.00,CLR,,0.00,0.0,WeatherDisplay:10.37,2013-12-03 08:58:00,
2013-12-03 03:03:00,36.6,34.8,29.63,SE,145,2.0,4.0,93,0.00,CLR,,0.00,0.0,WeatherDisplay:10.37,2013-12-03 09:03:00,
2013-12-03 03:08:00,36.5,34.7,29.63,SE,144,2.3,4.0,93,0.00,CLR,,0.00,0.0,WeatherDisplay:10.37,2013-12-03 09:08:00,
2013-12-03 03:13:00,36.6,34.8,29.63,SE,144,1.9,3.5,93,0.00,CLR,,0.00,0.0,WeatherDisplay:10.37,2013-12-03 09:13:00,
2013-12-03 03:18:00,36.7,34.9,29.63,SE,144,1.2,3.5,93,0.00,CLR,,0.00,0.0,WeatherDisplay:10.37,2013-12-03 09:18:00,
2013-12-03 03:23:00,36.8,35.0,29.63,SE,136,2.0,3.5,93,0.00,CLR,,0.00,0.0,WeatherDisplay:10.37,2013-12-03 09:23:00,
2013-12-03 03:28:00,36.9,35.1,29.63,SE,136,0.9,2.3,93,0.00,CLR,,0.00,0.0,WeatherDisplay:10.37,2013-12-03 09:28:00,
2013-12-03 03:33:00,36.9,35.1,29.63,SE,136,1.0,3.5,93,0.00,CLR,,0.00,0.0,WeatherDisplay:10.37,2013-12-03 09:33:00,
2013-12-03 03:38:00,36.9,35.1,29.63,SE,136,1.3,2.3,93,0.00,CLR,,0.00,0.0,WeatherDisplay:10.37,2013-12-03 09:38:00,
2013-12-03 03:43:00,37.0,35.2,29.63,SE,136,1.1,3.5,93,0.00,CLR,,0.00,0.0,WeatherDisplay:10.37,2013-12-03 09:43:00,
2013-12-03 03:48:00,37.0,35.2,29.63,SE,136,0.8,3.5,93,0.00,CLR,,0.00,0.0,WeatherDisplay:10.37,2013-12-03 09:48:00,
2013-12-03 03:53:00,37.0,35.2,29.64,SE,136,0.0,1.2,93,0.00,CLR,,0.00,0.0,WeatherDisplay:10.37,2013-12-03 09:53:00,
2013-12-03 03:58:00,37.0,35.2,29.63,SE,136,1.8,3.0,93,0.00,CLR,,0.00,0.0,WeatherDisplay:10.37,2013-12-03 09:58:00,
2013-12-03 04:03:00,37.0,35.2,29.63,SE,136,1.3,2.3,93,0.00,CLR,,0.00,0.0,WeatherDisplay:10.37,2013-12-03 10:03:00,
2013-12-03 04:08:00,36.9,35.1,29.64,SE,136,1.1,3.5,93,0.00,CLR,,0.00,0.0,WeatherDisplay:10.37,2013-12-03 10:08:00,
2013-12-03 04:13:00,36.9,35.1,29.64,SE,136,0.0,0.0,93,0.00,CLR,,0.00,0.0,WeatherDisplay:10.37,2013-12-03 10:13:00,
2013-12-03 04:18:00,36.8,35.0,29.64,SE,136,0.0,0.0,93,0.00,CLR,,0.00,0.0,WeatherDisplay:10.37,2013-12-03 10:18:00,
2013-12-03 04:23:00,36.8,35.0,29.63,SE,136,0.0,0.0,93,0.00,CLR,,0.00,0.0,WeatherDisplay:10.37,2013-12-03 10:23:00,
2013-12-03 04:28:00,36.7,34.9,29.64,SE,136,0.0,0.0,93,0.00,CLR,,0.00,0.0,WeatherDisplay:10.37,2013-12-03 10:28:00,
2013-12-03 04:33:00,36.6,34.8,29.64,SE,136,1.8,3.5,93,0.00,CLR,,0.00,0.0,WeatherDisplay:10.37,2013-12-03 10:33:00,
2013-12-03 04:38:00,36.6,34.8,29.64,SE,136,0.0,0.0,93,0.00,CLR,,0.00,0.0,WeatherDisplay:10.37,2013-12-03 10:38:00,
2013-12-03 04:43:00,36.5,34.7,29.64,SE,136,0.0,0.0,93,0.00,CLR,,0.00,0.0,WeatherDisplay:10.37,2013-12-03 10:43:00,
2013-12-03 04:48:00,36.4,34.6,29.64,SE,136,1.1,2.3,93,0.00,CLR,,0.00,0.0,WeatherDisplay:10.37,2013-12-03 10:48:00,
2013-12-03 04:53:00,36.4,34.6,29.63,SE,136,0.7,1.2,93,0.00,CLR,,0.00,0.0,WeatherDisplay:10.37,2013-12-03 10:53:00,
2013-12-03 04:59:00,36.2,34.4,29.63,SE,136,2.0,4.0,93,0.00,CLR,,0.00,0.0,WeatherDisplay:10.37,2013-12-03 10:59:00,
2013-12-03 05:04:00,36.1,34.3,29.63,SE,136,2.5,3.5,93,0.00,CLR,,0.00,0.0,WeatherDisplay:10.37,2013-12-03 11:04:00,
2013-12-03 05:09:00,36.0,34.2,29.63,SE,136,2.0,3.5,93,0.00,CLR,,0.00,0.0,WeatherDisplay:10.37,2013-12-03 11:09:00,
2013-12-03 05:14:00,35.9,34.1,29.63,SE,136,2.3,3.5,93,0.00,CLR,,0.00,0.0,WeatherDisplay:10.37,2013-12-03 11:14:00,
2013-12-03 05:19:00,35.8,34.0,29.64,SE,136,2.9,4.0,93,0.00,CLR,,0.00,0.0,WeatherDisplay:10.37,2013-12-03 11:19:00,
2013-12-03 05:24:00,35.7,33.9,29.64,SE,136,2.9,4.0,93,0.00,CLR,,0.00,0.0,WeatherDisplay:10.37,2013-12-03 11:24:00,
2013-12-03 05:29:00,35.6,33.8,29.64,SE,136,2.0,3.5,93,0.00,CLR,,0.00,0.0,WeatherDisplay:10.37,2013-12-03 11:29:00,
2013-12-03 05:34:00,35.5,33.7,29.64,SE,135,2.7,4.0,93,0.00,CLR,,0.00,0.0,WeatherDisplay:10.37,2013-12-03 11:34:00,
2013-12-03 05:39:00,35.3,33.5,29.64,SE,134,2.0,3.5,93,0.00,CLR,,0.00,0.0,WeatherDisplay:10.37,2013-12-03 11:39:00,
2013-12-03 05:44:00,35.2,33.4,29.64,SE,134,2.0,3.5,93,0.00,CLR,,0.00,0.0,WeatherDisplay:10.37,2013-12-03 11:44:00,
2013-12-03 05:49:00,35.2,33.4,29.64,SE,130,3.2,6.0,93,0.00,CLR,,0.00,0.0,WeatherDisplay:10.37,2013-12-03 11:49:00,
2013-12-03 05:54:00,35.2,33.4,29.64,SE,126,3.0,6.0,93,0.00,CLR,,0.00,0.0,WeatherDisplay:10.37,2013-12-03 11:54:00,
2013-12-03 05:59:00,35.2,33.4,29.64,SE,124,2.8,3.5,93,0.00,CLR,,0.00,0.0,WeatherDisplay:10.37,2013-12-03 11:59:00,
2013-12-03 06:04:00,35.2,33.4,29.64,ESE,123,2.7,3.5,93,0.00,CLR,,0.00,0.0,WeatherDisplay:10.37,2013-12-03 12:04:00,
2013-12-03 06:09:00,35.1,33.3,29.64,SE,124,2.1,3.5,93,0.00,CLR,,0.00,0.0,WeatherDisplay:10.37,2013-12-03 12:09:00,
2013-12-03 06:14:00,35.2,33.4,29.64,SE,125,2.4,4.6,93,0.00,CLR,,0.00,0.0,WeatherDisplay:10.37,2013-12-03 12:14:00,
2013-12-03 06:19:00,35.2,33.4,29.64,SE,125,2.7,4.0,93,0.00,CLR,,0.00,0.0,WeatherDisplay:10.37,2013-12-03 12:19:00,
2013-12-03 06:24:00,35.2,33.4,29.65,SE,125,2.2,4.0,93,0.00,CLR,,0.00,0.0,WeatherDisplay:10.37,2013-12-03 12:24:00,
2013-12-03 06:29:00,35.2,33.4,29.64,SSE,154,3.9,5.0,93,0.00,CLR,,0.00,0.0,WeatherDisplay:10.37,2013-12-03 12:29:00,
2013-12-03 06:34:00,35.1,33.3,29.64,SE,130,3.9,6.9,93,0.00,CLR,,0.00,0.0,WeatherDisplay:10.37,2013-12-03 12:34:00,
2013-12-03 06:39:00,35.2,33.4,29.65,SE,140,3.0,5.0,93,0.00,CLR,,0.00,0.0,WeatherDisplay:10.37,2013-12-03 12:39:00,
2013-12-03 06:44:00,35.1,33.3,29.64,ESE,119,4.7,6.0,93,0.00,CLR,,0.00,0.0,WeatherDisplay:10.37,2013-12-03 12:44:00,
2013-12-03 06:49:00,35.2,33.4,29.64,ESE,121,4.2,7.0,93,0.00,CLR,,0.00,0.0,WeatherDisplay:10.37,2013-12-03 12:49:00,
2013-12-03 06:54:00,35.2,33.4,29.64,ESE,123,3.1,5.8,93,0.00,CLR,,0.00,0.0,WeatherDisplay:10.37,2013-12-03 12:54:00,
2013-12-03 06:59:00,35.2,33.6,29.65,SE,127,2.4,4.0,94,0.00,CLR,,0.00,0.0,WeatherDisplay:10.37,2013-12-03 12:59:00,
2013-12-03 07:04:00,35.2,33.6,29.65,SE,128,3.5,4.6,94,0.00,OVC,,0.00,0.0,WeatherDisplay:10.37,2013-12-03 13:04:00,
2013-12-03 07:09:00,35.1,33.3,29.64,SE,128,3.4,6.0,93,0.00,OVC,,0.00,0.0,WeatherDisplay:10.37,2013-12-03 13:09:00,
2013-12-03 07:14:00,35.1,33.5,29.65,ESE,117,3.8,5.0,94,0.00,OVC,,0.00,0.0,WeatherDisplay:10.37,2013-12-03 13:14:00,
2013-12-03 07:19:00,35.0,33.4,29.64,SE,125,3.4,4.6,94,0.00,CLR,,0.00,6.2,WeatherDisplay:10.37,2013-12-03 13:19:00,
2013-12-03 07:24:00,35.0,33.4,29.65,SE,136,3.8,5.0,94,0.00,CLR,,0.00,8.7,WeatherDisplay:10.37,2013-12-03 13:24:00,
2013-12-03 07:29:00,35.0,33.4,29.65,SSE,150,3.8,5.0,94,0.00,CLR,,0.00,13.6,WeatherDisplay:10.37,2013-12-03 13:29:00,
2013-12-03 07:34:00,34.9,33.3,29.65,SE,136,3.6,4.6,94,0.00,SCT,,0.00,14.9,WeatherDisplay:10.37,2013-12-03 13:34:00,
2013-12-03 07:39:00,34.9,33.3,29.66,ESE,122,4.1,6.0,94,0.00,SCT,,0.00,19.8,WeatherDisplay:10.37,2013-12-03 13:39:00,
2013-12-03 07:44:00,34.9,33.3,29.65,SE,128,4.6,7.0,94,0.00,SCT,,0.00,26.0,WeatherDisplay:10.37,2013-12-03 13:44:00,
2013-12-03 07:49:00,35.0,33.4,29.65,SE,126,2.5,4.0,94,0.00,SCT,,0.00,32.2,WeatherDisplay:10.37,2013-12-03 13:49:00,
2013-12-03 07:54:00,35.0,33.4,29.65,SE,126,3.0,6.9,94,0.00,SCT,,0.00,34.7,WeatherDisplay:10.37,2013-12-03 13:54:00,
2013-12-03 07:59:00,35.2,33.6,29.64,SE,136,4.5,5.8,94,0.00,SCT,,0.00,39.7,WeatherDisplay:10.37,2013-12-03 13:59:00,
2013-12-03 08:04:00,35.4,33.8,29.64,ESE,121,3.3,4.6,94,0.00,SCT,,0.00,43.4,WeatherDisplay:10.37,2013-12-03 14:04:00,
2013-12-03 08:09:00,35.6,34.0,29.64,SE,125,4.3,6.9,94,0.00,FEW,,0.00,57.0,WeatherDisplay:10.37,2013-12-03 14:09:00,
2013-12-03 08:14:00,35.7,34.1,29.64,SE,124,4.4,7.0,94,0.00,SCT,,0.00,60.8,WeatherDisplay:10.37,2013-12-03 14:14:00,
2013-12-03 08:19:00,36.0,34.4,29.64,SE,130,3.4,4.6,94,0.00,FEW,,0.00,67.0,WeatherDisplay:10.37,2013-12-03 14:19:00,
2013-12-03 08:24:00,36.4,34.8,29.64,ESE,114,3.3,4.6,94,0.00,FEW,,0.00,80.6,WeatherDisplay:10.37,2013-12-03 14:24:00,
2013-12-03 08:29:00,36.7,35.1,29.64,SSE,152,4.5,6.9,94,0.00,FEW,,0.00,91.8,WeatherDisplay:10.37,2013-12-03 14:29:00,
2013-12-03 08:34:00,37.0,35.4,29.64,SE,129,3.7,5.0,94,0.00,CLR,,0.00,104.2,WeatherDisplay:10.37,2013-12-03 14:34:00,
2013-12-03 08:39:00,37.4,35.8,29.64,SE,136,3.9,6.9,94,0.00,CLR,,0.00,104.2,WeatherDisplay:10.37,2013-12-03 14:39:00,
2013-12-03 08:44:00,37.8,36.2,29.64,SSE,149,3.4,4.6,94,0.00,CLR,,0.00,104.2,WeatherDisplay:10.37,2013-12-03 14:44:00,
2013-12-03 08:49:00,38.2,36.6,29.64,SSE,148,4.9,7.0,94,0.00,FEW,,0.00,109.1,WeatherDisplay:10.37,2013-12-03 14:49:00,
2013-12-03 08:54:00,38.5,36.9,29.64,SE,144,5.0,6.0,94,0.00,FEW,,0.00,111.6,WeatherDisplay:10.37,2013-12-03 14:54:00,
2013-12-03 08:59:00,39.0,37.7,29.64,SSE,149,5.0,9.2,95,0.00,FEW,,0.00,102.9,WeatherDisplay:10.37,2013-12-03 14:59:00,
2013-12-03 09:04:00,39.4,37.8,29.63,SE,136,3.9,6.9,94,0.00,SCT,,0.00,98.0,WeatherDisplay:10.37,2013-12-03 15:04:00,
2013-12-03 09:09:00,39.7,38.4,29.63,SSE,149,4.5,9.0,95,0.00,SCT,,0.00,91.8,WeatherDisplay:10.37,2013-12-03 15:09:00,
2013-12-03 09:14:00,39.9,38.6,29.63,SSE,159,4.7,6.9,95,0.00,BKN,,0.00,95.5,WeatherDisplay:10.37,2013-12-03 15:14:00,
2013-12-03 09:19:00,40.0,38.7,29.64,SSE,153,5.8,11.5,95,0.00,BKN,,0.00,104.2,WeatherDisplay:10.37,2013-12-03 15:19:00,
2013-12-03 09:24:00,40.2,38.9,29.64,SSW,200,4.0,6.0,95,0.00,BKN,,0.00,106.6,WeatherDisplay:10.37,2013-12-03 15:24:00,
2013-12-03 09:29:00,40.4,39.1,29.64,SSE,151,3.6,9.0,95,0.00,SCT,,0.00,121.5,WeatherDisplay:10.37,2013-12-03 15:29:00,
2013-12-03 09:34:00,40.5,39.2,29.64,SE,144,4.9,7.0,95,0.00,SCT,,0.00,130.2,WeatherDisplay:10.37,2013-12-03 15:34:00,
2013-12-03 09:39:00,40.8,39.5,29.64,SE,144,5.0,9.2,95,0.00,SCT,,0.00,130.2,WeatherDisplay:10.37,2013-12-03 15:39:00,
2013-12-03 09:44:00,41.1,39.8,29.64,SE,142,3.0,5.0,95,0.00,SCT,,0.00,129.0,WeatherDisplay:10.37,2013-12-03 15:44:00,
2013-12-03 09:49:00,41.5,40.2,29.64,SSE,151,4.9,10.0,95,0.00,SCT,,0.00,135.2,WeatherDisplay:10.37,2013-12-03 15:49:00,
2013-12-03 09:54:00,41.9,40.6,29.64,SSE,152,6.2,8.1,95,0.00,SCT,,0.00,141.4,WeatherDisplay:10.37,2013-12-03 15:54:00,
2013-12-03 09:59:00,42.1,40.8,29.64,SSE,151,4.1,9.2,95,0.00,SCT,,0.00,148.8,WeatherDisplay:10.37,2013-12-03 15:59:00,
2013-12-03 10:04:00,42.4,41.1,29.64,SSE,149,4.0,6.9,95,0.00,SCT,,0.00,140.1,WeatherDisplay:10.37,2013-12-03 16:04:00,
2013-12-03 10:09:00,42.7,41.4,29.65,SSE,152,2.6,4.0,95,0.00,SCT,,0.00,129.0,WeatherDisplay:10.37,2013-12-03 16:09:00,
2013-12-03 10:14:00,42.9,41.6,29.65,SSE,152,2.4,6.9,95,0.00,BKN,,0.00,121.5,WeatherDisplay:10.37,2013-12-03 16:14:00,
2013-12-03 10:19:00,43.2,41.9,29.66,SE,146,2.8,4.6,95,0.00,BKN,,0.00,135.2,WeatherDisplay:10.37,2013-12-03 16:19:00,
2013-12-03 10:24:00,43.4,42.1,29.66,SSE,155,2.8,5.8,95,0.00,BKN,,0.00,157.5,WeatherDisplay:10.37,2013-12-03 16:24:00,
2013-12-03 10:29:00,43.7,42.4,29.66,SSE,151,5.1,9.2,95,0.00,SCT,,0.00,169.9,WeatherDisplay:10.37,2013-12-03 16:29:00,
2013-12-03 10:34:00,44.0,42.7,29.66,SSE,159,3.1,5.8,95,0.00,SCT,,0.00,178.6,WeatherDisplay:10.37,2013-12-03 16:34:00,
2013-12-03 10:39:00,44.2,42.9,29.66,SE,141,1.8,3.5,95,0.00,SCT,,0.00,178.6,WeatherDisplay:10.37,2013-12-03 16:39:00,
2013-12-03 10:44:00,44.6,43.3,29.66,SE,146,4.7,9.2,95,0.00,SCT,,0.00,157.5,WeatherDisplay:10.37,2013-12-03 16:44:00,
2013-12-03 10:49:00,44.7,43.4,29.65,SE,146,3.1,4.6,95,0.00,BKN,,0.00,148.8,WeatherDisplay:10.37,2013-12-03 16:49:00,
2013-12-03 10:54:00,44.9,43.6,29.66,SSE,152,5.5,7.0,95,0.00,BKN,,0.00,140.1,WeatherDisplay:10.37,2013-12-03 16:54:00,
2013-12-03 10:59:00,45.0,43.7,29.65,SSE,159,6.7,11.5,95,0.00,BKN,,0.00,135.2,WeatherDisplay:10.37,2013-12-03 16:59:00,
2013-12-03 11:04:00,45.0,43.7,29.65,SSE,153,3.5,5.8,95,0.00,BKN,,0.00,124.0,WeatherDisplay:10.37,2013-12-03 17:04:00,
2013-12-03 11:09:00,45.2,43.9,29.66,SSE,150,3.4,9.2,95,0.00,OVC,,0.00,115.3,WeatherDisplay:10.37,2013-12-03 17:09:00,
2013-12-03 11:14:00,45.3,44.0,29.66,SSE,152,1.5,4.0,95,0.00,OVC,,0.00,102.9,WeatherDisplay:10.37,2013-12-03 17:14:00,
2013-12-03 11:19:00,45.5,44.2,29.66,SSE,153,3.6,5.0,95,0.00,OVC,,0.00,98.0,WeatherDisplay:10.37,2013-12-03 17:19:00,
2013-12-03 11:24:00,45.5,44.2,29.66,SSE,157,2.0,5.8,95,0.00,OVC,,0.00,80.6,WeatherDisplay:10.37,2013-12-03 17:24:00,
2013-12-03 11:29:00,45.6,44.3,29.66,SSE,157,2.0,3.5,95,0.00,OVC,,0.00,89.3,WeatherDisplay:10.37,2013-12-03 17:29:00,
2013-12-03 11:34:00,45.7,44.4,29.66,SSE,157,2.6,4.0,95,0.00,OVC,,0.00,111.6,WeatherDisplay:10.37,2013-12-03 17:34:00,
2013-12-03 11:39:00,45.9,44.5,29.66,SSE,148,3.7,6.9,95,0.00,OVC,,0.00,126.5,WeatherDisplay:10.37,2013-12-03 17:39:00,
2013-12-03 11:44:00,46.0,44.4,29.66,SSE,149,0.0,3.5,94,0.00,OVC,,0.00,100.4,WeatherDisplay:10.37,2013-12-03 17:44:00,
2013-12-03 11:49:00,46.1,44.7,29.65,SSE,155,4.5,6.9,95,0.00,OVC,,0.00,146.3,WeatherDisplay:10.37,2013-12-03 17:49:00,
2013-12-03 11:54:00,46.3,44.9,29.65,SSE,149,3.5,5.0,95,0.00,OVC,,0.00,152.5,WeatherDisplay:10.37,2013-12-03 17:54:00,
2013-12-03 11:59:00,46.4,45.0,29.65,SSE,154,2.9,4.0,95,0.00,BKN,,0.00,157.5,WeatherDisplay:10.37,2013-12-03 17:59:00,
2013-12-03 12:04:00,46.7,45.1,29.64,SSE,166,4.0,8.0,94,0.00,BKN,,0.00,183.5,WeatherDisplay:10.37,2013-12-03 18:04:00,
2013-12-03 12:09:00,46.9,45.3,29.64,SE,133,4.5,6.0,94,0.00,BKN,,0.00,181.0,WeatherDisplay:10.37,2013-12-03 18:09:00,
2013-12-03 12:14:00,47.1,45.5,29.64,SE,145,1.9,3.5,94,0.00,BKN,,0.00,169.9,WeatherDisplay:10.37,2013-12-03 18:14:00,
2013-12-03 12:19:00,47.4,45.8,29.64,SSE,158,4.3,6.9,94,0.00,BKN,,0.00,146.3,WeatherDisplay:10.37,2013-12-03 18:19:00,
2013-12-03 12:24:00,47.6,46.0,29.64,SSE,154,2.9,4.6,94,0.00,BKN,,0.00,140.1,WeatherDisplay:10.37,2013-12-03 18:24:00,
2013-12-03 12:29:00,47.7,46.1,29.64,SSE,148,5.6,8.1,94,0.00,BKN,,0.00,155.0,WeatherDisplay:10.37,2013-12-03 18:29:00,
2013-12-03 12:34:00,47.9,46.3,29.63,SSE,150,4.4,7.0,94,0.00,BKN,,0.00,166.2,WeatherDisplay:10.37,2013-12-03 18:34:00,
2013-12-03 12:39:00,48.1,46.5,29.63,SE,145,4.7,6.9,94,0.00,BKN,,0.00,172.4,WeatherDisplay:10.37,2013-12-03 18:39:00,
2013-12-03 12:44:00,48.2,46.6,29.62,SSE,148,3.6,6.0,94,0.00,BKN,,0.00,166.2,WeatherDisplay:10.37,2013-12-03 18:44:00,
2013-12-03 12:49:00,48.4,46.8,29.62,SE,139,4.8,8.0,94,0.00,BKN,,0.00,148.8,WeatherDisplay:10.37,2013-12-03 18:49:00,
2013-12-03 12:54:00,48.5,46.6,29.62,SSE,150,6.0,10.0,93,0.00,BKN,,0.00,130.2,WeatherDisplay:10.37,2013-12-03 18:54:00,
2013-12-03 12:59:00,48.6,46.7,29.62,SSE,153,4.7,7.0,93,0.00,BKN,,0.00,117.8,WeatherDisplay:10.37,2013-12-03 18:59:00,
2013-12-03 13:04:00,48.6,46.7,29.62,SSE,161,4.5,9.2,93,0.00,OVC,,0.00,117.8,WeatherDisplay:10.37,2013-12-03 19:04:00,
2013-12-03 13:09:00,48.5,46.3,29.62,SSE,153,4.5,9.0,92,0.00,OVC,,0.00,129.0,WeatherDisplay:10.37,2013-12-03 19:09:00,
2013-12-03 13:14:00,48.4,46.2,29.61,ESE,123,5.8,14.0,92,0.00,BKN,,0.00,192.2,WeatherDisplay:10.37,2013-12-03 19:14:00,
2013-12-03 13:19:00,48.4,46.2,29.61,SE,138,6.1,9.0,92,0.00,SCT,,0.00,200.9,WeatherDisplay:10.37,2013-12-03 19:19:00,
2013-12-03 13:24:00,48.5,46.3,29.60,SSE,157,7.4,11.5,92,0.00,FEW,,0.00,220.7,WeatherDisplay:10.37,2013-12-03 19:24:00,
2013-12-03 13:29:00,48.5,46.0,29.60,SSE,152,8.1,13.0,91,0.00,FEW,,0.00,198.4,WeatherDisplay:10.37,2013-12-03 19:29:00,
2013-12-03 13:34:00,48.7,46.2,29.59,SE,146,6.3,13.8,91,0.00,CLR,,0.00,535.7,WeatherDisplay:10.37,2013-12-03 19:34:00,
2013-12-03 13:39:00,49.2,46.7,29.59,SE,133,4.7,11.0,91,0.00,CLR,,0.00,212.0,WeatherDisplay:10.37,2013-12-03 19:39:00,
2013-12-03 13:44:00,49.1,46.3,29.58,ESE,119,6.2,15.0,90,0.00,CLR,,0.00,483.6,WeatherDisplay:10.37,2013-12-03 19:44:00,
2013-12-03 13:49:00,49.2,46.4,29.58,ESE,117,6.0,10.4,90,0.00,CLR,,0.00,270.3,WeatherDisplay:10.37,2013-12-03 19:49:00,
2013-12-03 13:55:00,49.6,46.5,29.57,SE,126,8.9,12.0,89,0.00,CLR,,0.00,385.6,WeatherDisplay:10.37,2013-12-03 19:55:00,
2013-12-03 14:00:00,49.5,46.1,29.56,SE,128,7.7,14.0,88,0.00,CLR,,0.00,274.0,WeatherDisplay:10.37,2013-12-03 20:00:00,
2013-12-03 14:05:00,49.8,46.7,29.56,ESE,118,6.5,11.0,89,0.00,CLR,,0.00,408.0,WeatherDisplay:10.37,2013-12-03 20:05:00,
2013-12-03 14:10:00,50.2,46.8,29.56,SE,125,9.8,13.8,88,0.00,CLR,,0.00,348.4,WeatherDisplay:10.37,2013-12-03 20:10:00,
2013-12-03 14:15:00,50.6,46.9,29.55,SE,138,10.2,16.1,87,0.00,CLR,,0.00,359.6,WeatherDisplay:10.37,2013-12-03 20:15:00,
2013-12-03 14:20:00,50.8,47.1,29.55,SE,124,10.2,15.0,87,0.00,CLR,,0.00,390.6,WeatherDisplay:10.37,2013-12-03 20:20:00,
2013-12-03 14:25:00,51.1,47.1,29.55,SSE,149,9.0,13.8,86,0.00,CLR,,0.00,368.3,WeatherDisplay:10.37,2013-12-03 20:25:00,
2013-12-03 14:30:00,51.4,47.4,29.55,ESE,109,6.9,11.5,86,0.00,CLR,,0.00,310.0,WeatherDisplay:10.37,2013-12-03 20:30:00,
2013-12-03 14:35:00,51.6,47.2,29.55,ESE,110,10.0,15.0,85,0.00,CLR,,0.00,281.5,WeatherDisplay:10.37,2013-12-03 20:35:00,
2013-12-03 14:40:00,52.0,47.6,29.56,SSE,150,7.8,11.5,85,0.00,CLR,,0.00,270.3,WeatherDisplay:10.37,2013-12-03 20:40:00,
2013-12-03 14:45:00,52.2,47.8,29.56,SSE,157,9.6,18.0,85,0.00,CLR,,0.00,229.4,WeatherDisplay:10.37,2013-12-03 20:45:00,
2013-12-03 14:50:00,52.2,47.5,29.56,SE,125,5.3,10.4,84,0.00,CLR,,0.00,215.8,WeatherDisplay:10.37,2013-12-03 20:50:00,
2013-12-03 14:55:00,52.1,47.4,29.56,SE,146,8.8,13.0,84,0.00,CLR,,0.00,163.7,WeatherDisplay:10.37,2013-12-03 20:55:00,
2013-12-03 15:00:00,52.0,47.6,29.57,SE,132,6.8,11.5,85,0.00,CLR,,0.00,129.0,WeatherDisplay:10.37,2013-12-03 21:00:00,
2013-12-03 15:05:00,51.7,47.3,29.57,ESE,123,6.6,14.0,85,0.00,CLR,,0.00,215.8,WeatherDisplay:10.37,2013-12-03 21:05:00,
2013-12-03 15:10:00,51.6,47.2,29.57,SE,128,9.5,13.0,85,0.00,CLR,,0.00,111.6,WeatherDisplay:10.37,2013-12-03 21:10:00,
2013-12-03 15:15:00,51.3,46.9,29.56,ESE,122,9.0,13.0,85,0.00,CLR,,0.00,102.9,WeatherDisplay:10.37,2013-12-03 21:15:00,
2013-12-03 15:20:00,51.0,47.0,29.56,SSE,155,6.5,10.4,86,0.00,FEW,,0.00,91.8,WeatherDisplay:10.37,2013-12-03 21:20:00,
2013-12-03 15:25:00,50.7,46.7,29.57,SSE,153,5.4,11.5,86,0.00,SCT,,0.00,58.3,WeatherDisplay:10.37,2013-12-03 21:25:00,
2013-12-03 15:30:00,50.6,46.9,29.57,SSE,156,4.1,10.4,87,0.00,SCT,,0.00,57.0,WeatherDisplay:10.37,2013-12-03 21:30:00,
2013-12-03 15:35:00,50.6,46.9,29.59,WSW,237,3.2,4.0,87,0.00,BKN,,0.00,23.6,WeatherDisplay:10.37,2013-12-03 21:35:00,
2013-12-03 15:40:00,50.6,46.9,29.60,SW,218,4.0,5.8,87,0.00,OVC,,0.00,13.6,WeatherDisplay:10.37,2013-12-03 21:40:00,
2013-12-03 15:45:00,50.6,46.9,29.60,South,188,3.1,5.8,87,0.00,OVC,,0.00,14.9,WeatherDisplay:10.37,2013-12-03 21:45:00,
2013-12-03 15:50:00,50.6,47.2,29.60,South,186,3.1,5.8,88,0.00,OVC,,0.00,13.6,WeatherDisplay:10.37,2013-12-03 21:50:00,
2013-12-03 15:55:00,50.6,47.2,29.59,South,191,4.3,10.4,88,0.00,OVC,,0.00,11.2,WeatherDisplay:10.37,2013-12-03 21:55:00,
2013-12-03 16:00:00,50.5,47.1,29.60,SSE,149,3.7,6.0,88,0.00,OVC,,0.00,13.6,WeatherDisplay:10.37,2013-12-03 22:00:00,
2013-12-03 16:05:00,50.5,47.1,29.59,SSE,150,2.9,5.8,88,0.00,OVC,,0.00,17.4,WeatherDisplay:10.37,2013-12-03 22:05:00,
2013-12-03 16:10:00,50.5,47.1,29.60,SSE,149,3.8,6.0,88,0.00,OVC,,0.00,14.9,WeatherDisplay:10.37,2013-12-03 22:10:00,
2013-12-03 16:15:00,50.5,47.1,29.60,SSE,150,3.7,5.0,88,0.00,OVC,,0.00,11.2,WeatherDisplay:10.37,2013-12-03 22:15:00,
2013-12-03 16:20:00,50.5,47.1,29.60,SSE,150,3.3,5.0,88,0.00,OVC,,0.00,8.7,WeatherDisplay:10.37,2013-12-03 22:20:00,
2013-12-03 16:25:00,50.5,47.1,29.60,SSE,150,2.2,3.5,88,0.00,OVC,,0.00,6.2,WeatherDisplay:10.37,2013-12-03 22:25:00,
2013-12-03 16:30:00,50.4,47.0,29.59,SSE,150,1.7,3.0,88,0.00,OVC,,0.00,0.0,WeatherDisplay:10.37,2013-12-03 22:30:00,
2013-12-03 16:35:00,50.3,46.9,29.60,SSE,150,2.9,4.6,88,0.00,OVC,,0.00,0.0,WeatherDisplay:10.37,2013-12-03 22:35:00,
2013-12-03 16:40:00,50.2,46.8,29.60,SSE,150,1.5,3.5,88,0.00,OVC,,0.00,0.0,WeatherDisplay:10.37,2013-12-03 22:40:00,
2013-12-03 16:45:00,50.1,46.7,29.61,SSE,150,1.5,2.3,88,0.00,OVC,,0.00,0.0,WeatherDisplay:10.37,2013-12-03 22:45:00,
2013-12-03 16:50:00,50.1,46.7,29.61,SSE,150,1.8,3.5,88,0.00,OVC,,0.00,0.0,WeatherDisplay:10.37,2013-12-03 22:50:00,
2013-12-03 16:55:00,50.1,47.0,29.61,SSE,150,1.2,3.5,89,0.00,OVC,,0.00,0.0,WeatherDisplay:10.37,2013-12-03 22:55:00,
2013-12-03 17:00:00,50.0,46.9,29.61,SSE,150,1.5,3.5,89,0.00,OVC,,0.00,0.0,WeatherDisplay:10.37,2013-12-03 23:00:00,
2013-12-03 17:05:00,50.0,46.9,29.62,SSE,150,0.6,2.3,89,0.00,CLR,,0.00,0.0,WeatherDisplay:10.37,2013-12-03 23:05:00,
2013-12-03 17:10:00,49.9,46.8,29.62,SSE,150,2.0,3.5,89,0.00,CLR,,0.00,0.0,WeatherDisplay:10.37,2013-12-03 23:10:00,
2013-12-03 17:15:00,49.9,46.8,29.62,SSE,150,2.4,4.0,89,0.00,CLR,,0.00,0.0,WeatherDisplay:10.37,2013-12-03 23:15:00,
2013-12-03 17:20:00,49.9,46.8,29.62,SSE,150,3.2,4.0,89,0.00,CLR,,0.00,0.0,WeatherDisplay:10.37,2013-12-03 23:20:00,
2013-12-03 17:25:00,49.9,46.8,29.63,SSE,150,2.4,4.0,89,0.00,CLR,,0.00,0.0,WeatherDisplay:10.37,2013-12-03 23:25:00,
2013-12-03 17:30:00,49.8,46.7,29.63,SSE,150,1.1,3.5,89,0.00,CLR,,0.00,0.0,WeatherDisplay:10.37,2013-12-03 23:30:00,
2013-12-03 17:35:00,49.7,46.6,29.63,SSE,150,2.1,3.5,89,0.00,CLR,,0.00,0.0,WeatherDisplay:10.37,2013-12-03 23:35:00,
2013-12-03 17:40:00,49.6,46.5,29.63,SSE,150,1.4,3.5,89,0.00,CLR,,0.00,0.0,WeatherDisplay:10.37,2013-12-03 23:40:00,
2013-12-03 17:45:00,49.4,46.3,29.63,SSE,150,3.0,5.0,89,0.00,CLR,,0.00,0.0,WeatherDisplay:10.37,2013-12-03 23:45:00,
2013-12-03 17:50:00,49.2,46.1,29.63,SSE,150,3.4,4.0,89,0.00,CLR,,0.00,0.0,WeatherDisplay:10.37,2013-12-03 23:50:00,
2013-12-03 17:55:00,49.0,45.9,29.63,SSE,150,2.5,3.5,89,0.00,CLR,,0.00,0.0,WeatherDisplay:10.37,2013-12-03 23:55:00,
2013-12-03 18:00:00,48.8,45.7,29.64,SSE,150,2.7,3.5,89,0.00,CLR,,0.00,0.0,WeatherDisplay:10.37,2013-12-04 00:00:00,
2013-12-03 18:05:00,48.8,46.0,29.64,SSE,147,3.2,4.0,90,0.00,CLR,,0.00,0.0,WeatherDisplay:10.37,2013-12-04 00:05:00,
2013-12-03 18:10:00,48.8,46.0,29.64,SE,146,2.0,3.5,90,0.00,CLR,,0.00,0.0,WeatherDisplay:10.37,2013-12-04 00:10:00,
2013-12-03 18:15:00,48.8,46.0,29.64,SE,142,2.5,3.5,90,0.00,CLR,,0.00,0.0,WeatherDisplay:10.37,2013-12-04 00:15:00,
2013-12-03 18:20:00,48.8,46.0,29.64,SE,141,3.1,4.0,90,0.00,CLR,,0.00,0.0,WeatherDisplay:10.37,2013-12-04 00:20:00,
2013-12-03 18:25:00,48.8,46.0,29.64,SE,141,2.8,4.0,90,0.00,CLR,,0.00,0.0,WeatherDisplay:10.37,2013-12-04 00:25:00,
2013-12-03 18:30:00,48.8,46.0,29.64,SE,136,2.3,3.5,90,0.00,CLR,,0.00,0.0,WeatherDisplay:10.37,2013-12-04 00:30:00,
2013-12-03 18:35:00,48.8,46.3,29.64,SE,134,4.4,9.2,91,0.00,CLR,,0.00,0.0,WeatherDisplay:10.37,2013-12-04 00:35:00,
2013-12-03 18:40:00,48.8,46.3,29.64,SE,125,3.1,5.8,91,0.00,CLR,,0.00,0.0,WeatherDisplay:10.37,2013-12-04 00:40:00,
2013-12-03 18:45:00,48.9,46.4,29.64,ESE,109,3.8,6.0,91,0.00,CLR,,0.00,0.0,WeatherDisplay:10.37,2013-12-04 00:45:00,
2013-12-03 18:50:00,49.1,46.6,29.64,ESE,123,5.1,11.5,91,0.00,CLR,,0.00,0.0,WeatherDisplay:10.37,2013-12-04 00:50:00,
2013-12-03 18:55:00,49.2,46.7,29.64,ESE,118,4.1,6.9,91,0.00,CLR,,0.00,0.0,WeatherDisplay:10.37,2013-12-04 00:55:00,
2013-12-03 19:00:00,49.2,46.7,29.64,ESE,119,4.0,6.9,91,0.00,CLR,,0.00,0.0,WeatherDisplay:10.37,2013-12-04 01:00:00,
2013-12-03 19:05:00,49.2,46.7,29.64,SE,129,3.8,6.0,91,0.00,CLR,,0.00,0.0,WeatherDisplay:10.37,2013-12-04 01:05:00,
2013-12-03 19:10:00,49.0,46.5,29.64,ESE,123,4.9,10.4,91,0.00,CLR,,0.00,0.0,WeatherDisplay:10.37,2013-12-04 01:10:00,
2013-12-03 19:15:00,48.7,46.2,29.64,ESE,117,4.2,6.9,91,0.00,CLR,,0.00,0.0,WeatherDisplay:10.37,2013-12-04 01:15:00,
2013-12-03 19:20:00,48.4,45.9,29.64,ESE,121,3.2,3.5,91,0.00,CLR,,0.00,0.0,WeatherDisplay:10.37,2013-12-04 01:20:00,
2013-12-03 19:25:00,48.1,45.6,29.64,ESE,122,2.1,5.0,91,0.00,CLR,,0.00,0.0,WeatherDisplay:10.37,2013-12-04 01:25:00,
2013-12-03 19:30:00,47.9,45.4,29.64,ESE,122,3.7,5.0,91,0.00,CLR,,0.00,0.0,WeatherDisplay:10.37,2013-12-04 01:30:00,
2013-12-03 19:35:00,47.8,45.3,29.64,ESE,117,4.0,8.1,91,0.00,CLR,,0.00,0.0,WeatherDisplay:10.37,2013-12-04 01:35:00,
2013-12-03 19:40:00,47.6,45.4,29.64,SE,125,6.5,11.5,92,0.00,CLR,,0.00,0.0,WeatherDisplay:10.37,2013-12-04 01:40:00,
2013-12-03 19:45:00,47.6,45.4,29.65,ESE,122,4.5,6.9,92,0.00,CLR,,0.00,0.0,WeatherDisplay:10.37,2013-12-04 01:45:00,
2013-12-03 19:50:00,47.4,45.2,29.65,ESE,114,4.0,9.0,92,0.00,CLR,,0.00,0.0,WeatherDisplay:10.37,2013-12-04 01:50:00,
2013-12-03 19:55:00,47.4,45.2,29.65,ESE,121,3.6,4.6,92,0.00,CLR,,0.00,0.0,WeatherDisplay:10.37,2013-12-04 01:55:00,
2013-12-03 20:00:00,47.2,45.0,29.65,ESE,117,3.8,5.8,92,0.00,CLR,,0.00,0.0,WeatherDisplay:10.37,2013-12-04 02:00:00,
2013-12-03 20:05:00,47.2,45.0,29.65,ESE,119,3.4,5.0,92,0.00,CLR,,0.00,0.0,WeatherDisplay:10.37,2013-12-04 02:05:00,
2013-12-03 20:10:00,47.0,44.8,29.65,SE,128,4.4,9.0,92,0.00,CLR,,0.00,0.0,WeatherDisplay:10.37,2013-12-04 02:10:00,
2013-12-03 20:15:00,46.8,44.6,29.65,SE,125,4.2,5.8,92,0.00,CLR,,0.00,0.0,WeatherDisplay:10.37,2013-12-04 02:15:00,
2013-12-03 20:20:00,46.7,44.5,29.64,ESE,113,5.1,10.4,92,0.00,CLR,,0.00,0.0,WeatherDisplay:10.37,2013-12-04 02:20:00,
2013-12-03 20:25:00,46.7,44.5,29.64,ESE,119,5.8,10.4,92,0.00,CLR,,0.00,0.0,WeatherDisplay:10.37,2013-12-04 02:25:00,
2013-12-03 20:30:00,46.5,44.3,29.64,SE,136,4.8,10.4,92,0.00,CLR,,0.00,0.0,WeatherDisplay:10.37,2013-12-04 02:30:00,
2013-12-03 20:35:00,46.5,44.3,29.64,ESE,123,2.9,6.9,92,0.00,CLR,,0.00,0.0,WeatherDisplay:10.37,2013-12-04 02:35:00,
2013-12-03 20:40:00,46.4,44.2,29.64,ESE,110,3.5,4.6,92,0.00,CLR,,0.00,0.0,WeatherDisplay:10.37,2013-12-04 02:40:00,
2013-12-03 20:45:00,46.3,44.4,29.64,ESE,123,4.0,5.8,93,0.00,CLR,,0.00,0.0,WeatherDisplay:10.37,2013-12-04 02:45:00,
2013-12-03 20:50:00,46.2,44.3,29.64,SE,126,4.6,6.0,93,0.00,CLR,,0.00,0.0,WeatherDisplay:10.37,2013-12-04 02:50:00,
2013-12-03 20:55:00,46.0,43.8,29.64,SE,126,3.6,5.8,92,0.00,CLR,,0.00,0.0,WeatherDisplay:10.37,2013-12-04 02:55:00,
2013-12-03 21:00:00,45.9,44.0,29.64,SE,126,3.0,4.0,93,0.00,CLR,,0.00,0.0,WeatherDisplay:10.37,2013-12-04 03:00:00,
2013-12-03 21:05:00,45.8,43.9,29.64,SE,132,3.4,5.0,93,0.00,CLR,,0.00,0.0,WeatherDisplay:10.37,2013-12-04 03:05:00,
2013-12-03 21:10:00,45.9,44.0,29.64,ESE,123,5.4,10.4,93,0.00,CLR,,0.00,0.0,WeatherDisplay:10.37,2013-12-04 03:10:00,
2013-12-03 21:15:00,46.0,44.1,29.64,SE,128,3.1,5.8,93,0.00,CLR,,0.00,0.0,WeatherDisplay:10.37,2013-12-04 03:15:00,
2013-12-03 21:20:00,45.9,44.0,29.64,SE,128,3.9,5.8,93,0.00,CLR,,0.00,0.0,WeatherDisplay:10.37,2013-12-04 03:20:00,
2013-12-03 21:25:00,46.0,44.1,29.64,SSE,153,3.9,6.0,93,0.00,CLR,,0.00,0.0,WeatherDisplay:10.37,2013-12-04 03:25:00,
2013-12-03 21:30:00,46.1,44.2,29.64,SSE,153,5.4,7.0,93,0.00,CLR,,0.00,0.0,WeatherDisplay:10.37,2013-12-04 03:30:00,
2013-12-03 21:35:00,46.2,44.3,29.64,SSE,152,3.5,5.8,93,0.00,CLR,,0.00,0.0,WeatherDisplay:10.37,2013-12-04 03:35:00,
2013-12-03 21:40:00,46.2,44.3,29.64,SE,132,4.3,6.0,93,0.00,CLR,,0.00,0.0,WeatherDisplay:10.37,2013-12-04 03:40:00,
2013-12-03 21:45:00,46.3,44.4,29.64,SE,145,5.7,7.0,93,0.00,CLR,,0.00,0.0,WeatherDisplay:10.37,2013-12-04 03:45:00,
2013-12-03 21:50:00,46.3,44.4,29.64,SSE,149,5.9,8.1,93,0.00,CLR,,0.00,0.0,WeatherDisplay:10.37,2013-12-04 03:50:00,
2013-12-03 21:55:00,46.2,44.3,29.63,SE,134,4.7,9.2,93,0.00,CLR,,0.00,0.0,WeatherDisplay:10.37,2013-12-04 03:55:00,
2013-12-03 22:00:00,46.1,44.5,29.63,SE,144,3.6,5.0,94,0.00,CLR,,0.00,0.0,WeatherDisplay:10.37,2013-12-04 04:00:00,
2013-12-03 22:05:00,46.0,44.4,29.63,SE,136,4.7,6.9,94,0.00,CLR,,0.00,0.0,WeatherDisplay:10.37,2013-12-04 04:05:00,
2013-12-03 22:10:00,45.9,44.3,29.63,SE,142,4.8,6.9,94,0.00,CLR,,0.00,0.0,WeatherDisplay:10.37,2013-12-04 04:10:00,
2013-12-03 22:15:00,45.8,44.2,29.63,ESE,122,4.4,7.0,94,0.00,CLR,,0.00,0.0,WeatherDisplay:10.37,2013-12-04 04:15:00,
2013-12-03 22:20:00,45.7,44.1,29.63,SE,128,3.8,6.0,94,0.00,CLR,,0.00,0.0,WeatherDisplay:10.37,2013-12-04 04:20:00,
2013-12-03 22:25:00,45.6,44.0,29.63,SE,133,3.0,6.9,94,0.00,CLR,,0.00,0.0,WeatherDisplay:10.37,2013-12-04 04:25:00,
2013-12-03 22:30:00,45.5,43.9,29.63,ESE,121,3.1,4.6,94,0.00,CLR,,0.00,0.0,WeatherDisplay:10.37,2013-12-04 04:30:00,
2013-12-03 22:35:00,45.5,43.9,29.63,SE,124,2.3,4.6,94,0.00,CLR,,0.00,0.0,WeatherDisplay:10.37,2013-12-04 04:35:00,
2013-12-03 22:40:00,45.4,43.8,29.63,SE,125,4.0,8.1,94,0.00,CLR,,0.00,0.0,WeatherDisplay:10.37,2013-12-04 04:40:00,
2013-12-03 22:45:00,45.3,43.7,29.63,SE,136,4.3,7.0,94,0.00,CLR,,0.00,0.0,WeatherDisplay:10.37,2013-12-04 04:45:00,
2013-12-03 22:50:00,45.3,43.7,29.63,SE,135,3.4,4.6,94,0.00,CLR,,0.00,0.0,WeatherDisplay:10.37,2013-12-04 04:50:00,
2013-12-03 22:55:00,45.2,43.6,29.64,SE,141,3.0,4.0,94,0.00,CLR,,0.00,0.0,WeatherDisplay:10.37,2013-12-04 04:55:00,
2013-12-03 23:00:00,45.1,43.5,29.64,SSE,148,3.7,5.8,94,0.00,CLR,,0.00,0.0,WeatherDisplay:10.37,2013-12-04 05:00:00,
2013-12-03 23:01:00,45.1,43.5,29.64,SSE,148,3.7,5.8,94,0.00,CLR,,0.00,0.0,WeatherDisplay:10.37,2013-12-04 05:01:00,
2013-12-03 23:04:00,45.2,43.6,29.64,SSE,149,4.2,5.8,94,0.00,CLR,,0.00,0.0,WeatherDisplay:10.37,2013-12-04 05:04:00,
2013-12-03 23:09:00,45.2,43.6,29.64,SSE,152,6.0,10.4,94,0.00,CLR,,0.00,0.0,WeatherDisplay:10.37,2013-12-04 05:09:00,
2013-12-03 23:14:00,45.3,43.7,29.64,SSE,155,4.0,5.0,94,0.00,CLR,,0.00,0.0,WeatherDisplay:10.37,2013-12-04 05:14:00,
2013-12-03 23:19:00,45.4,43.8,29.64,SSE,147,6.5,10.4,94,0.00,CLR,,0.00,0.0,WeatherDisplay:10.37,2013-12-04 05:19:00,
2013-12-03 23:24:00,45.4,43.8,29.65,SE,145,3.8,5.0,94,0.00,CLR,,0.00,0.0,WeatherDisplay:10.37,2013-12-04 05:24:00,
2013-12-03 23:29:00,45.3,43.7,29.64,SSE,148,4.0,6.9,94,0.00,CLR,,0.00,0.0,WeatherDisplay:10.37,2013-12-04 05:29:00,
2013-12-03 23:34:00,45.3,43.7,29.65,SSE,151,4.4,7.0,94,0.00,CLR,,0.00,0.0,WeatherDisplay:10.37,2013-12-04 05:34:00,
2013-12-03 23:39:00,45.4,43.8,29.65,SSE,152,3.7,8.1,94,0.00,CLR,,0.00,0.0,WeatherDisplay:10.37,2013-12-04 05:39:00,
2013-12-03 23:44:00,45.5,43.9,29.65,SE,144,4.1,6.0,94,0.00,CLR,,0.00,0.0,WeatherDisplay:10.37,2013-12-04 05:44:00,
2013-12-03 23:49:00,45.5,44.2,29.65,SSE,153,5.7,6.9,95,0.00,CLR,,0.00,0.0,WeatherDisplay:10.37,2013-12-04 05:49:00,
2013-12-03 23:54:00,45.5,44.2,29.65,SSE,153,3.1,4.6,95,0.00,CLR,,0.00,0.0,WeatherDisplay:10.37,2013-12-04 05:54:00,
2013-12-03 23:59:00,45.4,43.8,29.65,SSE,153,2.8,4.6,94,0.00,CLR,,0.00,0.0,WeatherDisplay:10.37,2013-12-04 05:59:00,